Main page
METAR-TAF:

METAR-TAF

Airports :

Base Aérea de Santos

Santos, São Paulo, Brazil

latitude: 23-56S, longitude: 046-18W, elevation: 3 m

Current weather observation

The report was made 34 minutes ago, at 16:00 UTC
Wind 3 kt from the North/Northeast, varying between West and East/Northeast
Temperature 27°C
Humidity 66%
Pressure 1010 hPa
Visibility 10 km or more
Scattered clouds at a height of 3000 ft
Broken clouds at a height of 5000 ft

METAR: SBST 251600Z 03003KT 270V070 9999 SCT030 BKN050 27/20 Q1010

Time: 13:34 (16:34 UTC)


TAF: missing

Weather observations and forecasts of more than 4000 airports (METAR and TAF reports).

The available stations are represented by yellow and red dots on the map.

Hover mouse over dot to see the name of the station.

Then click to see weather observations and forecasts.

To change the map : click on the green buttons with a black cross to zoom in, on the green button with a dash to zoom out, or on the green arrows for adjacent maps.


METAR-TAF: